CSN7778 ZPDL-ZPDL

Flight info

Callsign CSN7778
Flight time 0h 35m
Altitude 17000
Route /
Aircraft A320/M-SDE2E3FGHIRWXY/LB1

Departure

Time 2026-05-08 04:21
Airport Dali Fengyi Airport (ZPDL)

Arrival

Time 2026-05-08 04:57
Airport Dali Fengyi Airport (ZPDL)
Time Latitude Longitude Altitude Speed Heading
2026-05-08 04:16 25.63889 100.32129 7070 ft 0 kts 348°
2026-05-08 04:21 25.63894 100.32128 7070 ft 5 kts 348°
2026-05-08 04:21 25.64178 100.32062 7075 ft 96 kts 347°
2026-05-08 04:21 25.65137 100.31829 7281 ft 172 kts 347°
2026-05-08 04:21 25.66343 100.31561 8262 ft 182 kts 345°
2026-05-08 04:22 25.67530 100.31286 9099 ft 171 kts 338°
2026-05-08 04:22 25.68713 100.30854 9616 ft 189 kts 338°
2026-05-08 04:22 25.69861 100.30205 10253 ft 182 kts 309°
2026-05-08 04:22 25.70481 100.28988 10481 ft 181 kts 274°
2026-05-08 04:23 25.70215 100.27625 10496 ft 186 kts 232°
2026-05-08 04:23 25.69190 100.26822 10425 ft 186 kts 198°
2026-05-08 04:23 25.67865 100.26777 10113 ft 197 kts 172°
2026-05-08 04:23 25.66543 100.27136 9924 ft 196 kts 168°
2026-05-08 04:24 25.65223 100.27545 9734 ft 192 kts 168°
2026-05-08 04:24 25.63979 100.27941 9618 ft 185 kts 168°
2026-05-08 04:24 25.62750 100.28334 9484 ft 180 kts 168°
2026-05-08 04:24 25.61561 100.28728 9433 ft 178 kts 165°
2026-05-08 04:25 25.60369 100.29187 9478 ft 188 kts 161°
2026-05-08 04:25 25.59100 100.29731 9427 ft 197 kts 162°
2026-05-08 04:25 25.57875 100.30220 9646 ft 176 kts 159°
2026-05-08 04:25 25.57055 100.31050 9930 ft 161 kts 121°
2026-05-08 04:26 25.56948 100.32312 9899 ft 172 kts 69°
2026-05-08 04:26 25.57764 100.33140 9633 ft 160 kts 15°
2026-05-08 04:26 25.58931 100.33209 8873 ft 176 kts 347°
2026-05-08 04:26 25.60157 100.32980 8322 ft 180 kts 346°
2026-05-08 04:27 25.61424 100.32684 7758 ft 190 kts 344°
2026-05-08 04:27 25.62707 100.32398 7473 ft 182 kts 346°
2026-05-08 04:27 25.63918 100.32137 7183 ft 172 kts 343°
2026-05-08 04:27 25.65015 100.31877 7085 ft 149 kts 345°
2026-05-08 04:28 25.66022 100.31655 7326 ft 164 kts 343°
2026-05-08 04:28 25.67223 100.31343 8025 ft 184 kts 338°
2026-05-08 04:28 25.68443 100.30941 8915 ft 184 kts 340°
2026-05-08 04:28 25.69663 100.30502 9656 ft 182 kts 326°
2026-05-08 04:29 25.70496 100.29499 10136 ft 176 kts 285°
2026-05-08 04:29 25.70504 100.28179 10632 ft 176 kts 249°
2026-05-08 04:29 25.69752 100.27231 10987 ft 165 kts 210°
2026-05-08 04:29 25.68665 100.26772 11010 ft 168 kts 201°
2026-05-08 04:30 25.67527 100.26415 10962 ft 171 kts 189°
2026-05-08 04:30 25.66385 100.26433 10953 ft 159 kts 176°
2026-05-08 04:30 25.65294 100.26683 10707 ft 163 kts 172°
2026-05-08 04:30 25.64145 100.26981 10288 ft 177 kts 170°
2026-05-08 04:31 25.62895 100.27335 9885 ft 193 kts 169°
2026-05-08 04:31 25.61572 100.27746 9567 ft 203 kts 166°
2026-05-08 04:31 25.60230 100.28216 9473 ft 200 kts 165°
2026-05-08 04:31 25.58940 100.28694 9462 ft 194 kts 164°
2026-05-08 04:32 25.57698 100.29197 9306 ft 189 kts 163°
2026-05-08 04:32 25.56570 100.29887 9378 ft 178 kts 134°
2026-05-08 04:32 25.56144 100.31168 9101 ft 188 kts 84°
2026-05-08 04:32 25.56758 100.32386 8943 ft 180 kts 29°
2026-05-08 04:33 25.57899 100.32831 8682 ft 177 kts 13°
2026-05-08 04:33 25.59071 100.33116 8465 ft 166 kts
2026-05-08 04:33 25.60197 100.32986 8095 ft 167 kts 343°
2026-05-08 04:33 25.61397 100.32655 7563 ft 182 kts 347°
2026-05-08 04:34 25.62609 100.32427 7335 ft 176 kts 344°
2026-05-08 04:34 25.63782 100.32159 7135 ft 168 kts 346°
2026-05-08 04:34 25.64860 100.31902 7081 ft 143 kts 347°
2026-05-08 04:34 25.65872 100.31672 7066 ft 177 kts 348°
2026-05-08 04:35 25.67182 100.31355 7858 ft 204 kts 344°
2026-05-08 04:35 25.68533 100.30825 8923 ft 203 kts 333°
2026-05-08 04:35 25.69686 100.30144 9784 ft 168 kts 316°
2026-05-08 04:35 25.70349 100.29137 10032 ft 158 kts 285°
2026-05-08 04:36 25.70422 100.28021 10255 ft 137 kts 252°
2026-05-08 04:36 25.69856 100.27191 10013 ft 151 kts 207°
2026-05-08 04:36 25.68756 100.26894 9842 ft 168 kts 184°
2026-05-08 04:36 25.67609 100.27075 9887 ft 173 kts 170°
2026-05-08 04:37 25.66412 100.27381 9791 ft 175 kts 170°
2026-05-08 04:37 25.65274 100.27724 9700 ft 164 kts 167°
2026-05-08 04:37 25.64216 100.28112 9547 ft 159 kts 166°
2026-05-08 04:37 25.63112 100.28504 9501 ft 168 kts 168°
2026-05-08 04:38 25.61956 100.28842 9359 ft 177 kts 170°
2026-05-08 04:38 25.60756 100.29173 9324 ft 172 kts 169°
2026-05-08 04:38 25.59651 100.29568 9272 ft 165 kts 150°
2026-05-08 04:38 25.59065 100.30651 8930 ft 184 kts 88°
2026-05-08 04:39 25.59665 100.31912 8524 ft 192 kts 35°
2026-05-08 04:39 25.60416 100.32416 8241 ft 190 kts 28°
2026-05-08 04:39 25.62035 100.32556 7689 ft 178 kts 340°
2026-05-08 04:39 25.63232 100.32261 7340 ft 178 kts 347°
2026-05-08 04:40 25.64046 100.32106 7108 ft 172 kts 345°
2026-05-08 04:40 25.65101 100.31853 7076 ft 141 kts 353°
2026-05-08 04:40 25.66135 100.31602 7048 ft 175 kts 343°
2026-05-08 04:40 25.67434 100.31198 7816 ft 198 kts 342°
2026-05-08 04:41 25.68772 100.30840 9172 ft 198 kts 343°
2026-05-08 04:41 25.70615 100.30419 10152 ft 213 kts 346°
2026-05-08 04:41 25.71601 100.30200 10315 ft 214 kts 343°
2026-05-08 04:41 25.72948 100.29594 10300 ft 210 kts 322°
2026-05-08 04:42 25.73894 100.28331 10215 ft 220 kts 291°
2026-05-08 04:42 25.74176 100.26743 10242 ft 202 kts 264°
2026-05-08 04:42 25.73786 100.25317 10223 ft 190 kts 238°
2026-05-08 04:42 25.72806 100.24378 10347 ft 189 kts 204°
2026-05-08 04:43 25.71511 100.24233 10476 ft 191 kts 172°
2026-05-08 04:43 25.70266 100.24606 10555 ft 183 kts 167°
2026-05-08 04:43 25.69078 100.25001 10611 ft 174 kts 168°
2026-05-08 04:43 25.67931 100.25313 10548 ft 167 kts 172°
2026-05-08 04:44 25.66785 100.25586 10332 ft 170 kts 172°
2026-05-08 04:44 25.65631 100.25896 10141 ft 170 kts 170°
2026-05-08 04:44 25.64488 100.26233 9992 ft 168 kts 169°
2026-05-08 04:44 25.63369 100.26576 9859 ft 165 kts 169°
2026-05-08 04:45 25.62257 100.26891 9784 ft 173 kts 173°
2026-05-08 04:45 25.61067 100.27169 9849 ft 172 kts 173°
2026-05-08 04:45 25.59875 100.27411 9858 ft 175 kts 176°
2026-05-08 04:45 25.58680 100.27685 9895 ft 174 kts 173°
2026-05-08 04:46 25.57538 100.28028 9907 ft 168 kts 168°
2026-05-08 04:46 25.56451 100.28395 10004 ft 159 kts 164°
2026-05-08 04:46 25.55585 100.29113 9877 ft 161 kts 127°
2026-05-08 04:46 25.55205 100.30356 9604 ft 187 kts 95°
2026-05-08 04:47 25.55448 100.31741 9437 ft 181 kts 59°
2026-05-08 04:47 25.56305 100.32688 9100 ft 178 kts 25°
2026-05-08 04:47 25.57464 100.33132 8856 ft 170 kts
2026-05-08 04:47 25.58610 100.33319 8664 ft 166 kts 359°
2026-05-08 04:48 25.59738 100.33193 8397 ft 159 kts 343°
2026-05-08 04:48 25.60819 100.32862 7933 ft 167 kts 338°
2026-05-08 04:48 25.61966 100.32529 7579 ft 170 kts 347°
2026-05-08 04:48 25.63123 100.32326 7314 ft 167 kts 344°
2026-05-08 04:49 25.64218 100.32047 7151 ft 153 kts 343°
2026-05-08 04:49 25.65338 100.31761 7535 ft 189 kts 341°
2026-05-08 04:49 25.66724 100.31310 8456 ft 225 kts 339°
2026-05-08 04:49 25.68272 100.30725 9508 ft 232 kts 338°
2026-05-08 04:50 25.69822 100.30084 9835 ft 248 kts 335°
2026-05-08 04:50 25.71236 100.29152 9995 ft 228 kts 314°
2026-05-08 04:50 25.72051 100.27741 9852 ft 212 kts 281°
2026-05-08 04:50 25.72132 100.26176 9806 ft 196 kts 263°
2026-05-08 04:51 25.71741 100.24802 9863 ft 187 kts 236°
2026-05-08 04:51 25.70750 100.23904 9810 ft 186 kts 202°
2026-05-08 04:51 25.69453 100.23799 9655 ft 196 kts 171°
2026-05-08 04:51 25.68141 100.24184 9787 ft 189 kts 167°
2026-05-08 04:52 25.66924 100.24589 9947 ft 182 kts 168°
2026-05-08 04:52 25.65680 100.24950 9931 ft 186 kts 168°
2026-05-08 04:52 25.64414 100.25320 9938 ft 188 kts 169°
2026-05-08 04:52 25.63145 100.25650 9941 ft 185 kts 169°
2026-05-08 04:53 25.61923 100.25986 9964 ft 181 kts 168°
2026-05-08 04:53 25.60710 100.26339 9903 ft 182 kts 169°
2026-05-08 04:53 25.59476 100.26698 9827 ft 183 kts 168°
2026-05-08 04:53 25.58289 100.27102 9866 ft 175 kts 166°
2026-05-08 04:54 25.57139 100.27517 9917 ft 173 kts 165°
2026-05-08 04:54 25.56078 100.28202 9955 ft 182 kts 137°
2026-05-08 04:54 25.55514 100.29427 9830 ft 185 kts 98°
2026-05-08 04:54 25.55716 100.30815 9662 ft 186 kts 61°
2026-05-08 04:55 25.56586 100.31829 9323 ft 178 kts 26°
2026-05-08 04:55 25.57724 100.32336 8895 ft 180 kts 24°
2026-05-08 04:55 25.58855 100.32974 8396 ft 180 kts 20°
2026-05-08 04:55 25.60025 100.33248 8114 ft 170 kts 354°
2026-05-08 04:56 25.61105 100.32878 7843 ft 160 kts 333°
2026-05-08 04:56 25.62140 100.32438 7625 ft 158 kts 343°
2026-05-08 04:56 25.63261 100.32264 7293 ft 168 kts 349°
2026-05-08 04:56 25.64371 100.32024 7103 ft 152 kts 346°
2026-05-08 04:57 25.65272 100.31810 7070 ft 100 kts 349°
2026-05-08 04:57 25.65678 100.31726 7057 ft 37 kts 346°
2026-05-08 04:57 25.65929 100.31665 7051 ft 31 kts 349°
2026-05-08 04:57 25.66093 100.31650 7051 ft 12 kts 28°
2026-05-08 04:58 25.66131 100.31622 7049 ft 8 kts 216°
2026-05-08 04:58 25.66091 100.31631 7047 ft 0 kts 164°
2026-05-08 05:05 25.66089 100.31631 7053 ft 2 kts 164°
2026-05-08 05:05 25.65895 100.31679 7053 ft 79 kts 168°
2026-05-08 05:05 25.65013 100.31881 7149 ft 171 kts 172°
2026-05-08 05:05 25.63725 100.32134 7880 ft 203 kts 174°
2026-05-08 05:06 25.62215 100.32389 8882 ft 232 kts 174°
2026-05-08 05:06 25.60680 100.32651 9937 ft 209 kts 173°
2026-05-08 05:06 25.59332 100.32907 10164 ft 193 kts 171°
2026-05-08 05:06 25.58033 100.33147 10150 ft 183 kts 182°
2026-05-08 05:07 25.56832 100.32955 10087 ft 168 kts 204°
2026-05-08 05:07 25.55892 100.32242 10045 ft 163 kts 230°
2026-05-08 05:07 25.55344 100.31113 10014 ft 178 kts 253°
2026-05-08 05:07 25.55275 100.29698 9954 ft 190 kts 277°
2026-05-08 05:08 25.55772 100.28349 9894 ft 196 kts 302°
2026-05-08 05:08 25.56787 100.27323 9894 ft 200 kts 325°
2026-05-08 05:08 25.58059 100.26713 9968 ft 199 kts 340°
2026-05-08 05:08 25.59419 100.26416 9886 ft 200 kts 349°
2026-05-08 05:09 25.60781 100.26243 9978 ft 194 kts 349°
2026-05-08 05:09 25.62116 100.26089 9961 ft 194 kts 349°
2026-05-08 05:09 25.63456 100.25920 9970 ft 193 kts 349°
2026-05-08 05:09 25.64784 100.25756 9971 ft 192 kts 350°
2026-05-08 05:10 25.66113 100.25630 9950 ft 191 kts 352°
2026-05-08 05:10 25.68727 100.25471 9826 ft 182 kts 355°
2026-05-08 05:10 25.69967 100.25463 9918 ft 181 kts 356°
2026-05-08 05:11 25.71163 100.25838 10041 ft 182 kts 30°
2026-05-08 05:11 25.72047 100.26831 9807 ft 180 kts 62°
2026-05-08 05:11 25.72343 100.28107 9585 ft 172 kts 95°
2026-05-08 05:11 25.71972 100.29294 9320 ft 160 kts 135°
2026-05-08 05:12 25.71162 100.30110 8980 ft 159 kts 145°
2026-05-08 05:12 25.70237 100.30832 8556 ft 159 kts 159°
2026-05-08 05:12 25.69196 100.31140 8334 ft 151 kts 171°
2026-05-08 05:12 25.68033 100.31364 8356 ft 186 kts 174°
2026-05-08 05:13 25.66755 100.31280 8632 ft 175 kts 205°
2026-05-08 05:13 25.65883 100.30412 8588 ft 171 kts 244°
2026-05-08 05:13 25.65600 100.29142 8605 ft 170 kts 262°
2026-05-08 05:13 25.65474 100.27847 8696 ft 170 kts 262°
2026-05-08 05:14 25.65366 100.26539 8704 ft 172 kts 264°
2026-05-08 05:14 25.65274 100.25216 8789 ft 171 kts 265°
2026-05-08 05:14 25.65193 100.23907 8963 ft 169 kts 265°
2026-05-08 05:14 25.65489 100.22671 9103 ft 170 kts 305°
2026-05-08 05:15 25.66399 100.21832 9085 ft 174 kts 330°
2026-05-08 05:15 25.67538 100.21411 9152 ft 169 kts 341°
2026-05-08 05:15 25.68680 100.21143 9236 ft 168 kts 347°
2026-05-08 05:15 25.69843 100.21029 9271 ft 165 kts 356°
2026-05-08 05:16 25.70930 100.21211 9253 ft 159 kts 20°
2026-05-08 05:16 25.71789 100.21966 9208 ft 163 kts 58°
2026-05-08 05:16 25.72267 100.23116 9158 ft 167 kts 72°
2026-05-08 05:16 25.72336 100.24410 8987 ft 171 kts 103°
2026-05-08 05:17 25.72063 100.25727 8813 ft 184 kts 102°
2026-05-08 05:17 25.71846 100.27136 8620 ft 180 kts 104°
2026-05-08 05:17 25.71451 100.28382 8372 ft 166 kts 120°
2026-05-08 05:17 25.70773 100.29384 8047 ft 161 kts 135°
2026-05-08 05:18 25.69985 100.30248 7798 ft 159 kts 143°
2026-05-08 05:18 25.69080 100.30917 7490 ft 152 kts 157°
2026-05-08 05:18 25.68122 100.31222 7356 ft 135 kts 176°
2026-05-08 05:18 25.67205 100.31364 7328 ft 134 kts 172°
2026-05-08 05:19 25.66304 100.31593 7141 ft 129 kts 172°
2026-05-08 05:19 25.65481 100.31759 7065 ft 101 kts 169°
2026-05-08 05:19 25.65081 100.31859 7076 ft 28 kts 156°
2026-05-08 05:19 25.65054 100.31988 7077 ft 16 kts 39°
2026-05-08 05:20 25.65135 100.32028 7075 ft 13 kts 353°
2026-05-08 05:20 25.65230 100.32002 7072 ft 16 kts 338°
2026-05-08 05:20 25.65354 100.31962 7069 ft 20 kts 329°
2026-05-08 05:20 25.65440 100.31900 7066 ft 0 kts 324°
2026-05-08 05:21 25.65441 100.31900 7066 ft 0 kts 324°
2026-05-08 05:21 25.65447 100.31895 7066 ft 6 kts 324°
2026-05-08 05:22 25.65505 100.31790 7064 ft 15 kts 269°
2026-05-08 05:22 25.65591 100.31753 7061 ft 23 kts 349°
2026-05-08 05:22 25.65822 100.31697 7053 ft 37 kts 347°
2026-05-08 05:22 25.66074 100.31636 7048 ft 21 kts
2026-05-08 05:23 25.66136 100.31627 7049 ft 5 kts 254°
2026-05-08 05:23 25.66107 100.31629 7044 ft 5 kts 165°
2026-05-08 05:23 25.66101 100.31631 7046 ft 5 kts 167°
2026-05-08 05:24 25.65797 100.31697 7056 ft 101 kts 172°
2026-05-08 05:24 25.64821 100.31934 7418 ft 165 kts 171°
2026-05-08 05:24 25.63661 100.32191 8274 ft 176 kts 174°
2026-05-08 05:24 25.62368 100.32407 9193 ft 199 kts 176°
2026-05-08 05:25 25.60935 100.32505 9947 ft 210 kts 188°
2026-05-08 05:25 25.59553 100.31943 10643 ft 218 kts 218°
2026-05-08 05:25 25.58753 100.30684 11260 ft 204 kts 257°
2026-05-08 05:25 25.58634 100.29169 11906 ft 196 kts 270°
2026-05-08 05:26 25.59112 100.27709 12535 ft 216 kts 306°
2026-05-08 05:26 25.60390 100.26834 12358 ft 222 kts 346°
2026-05-08 05:26 25.61826 100.26574 12633 ft 206 kts 348°
2026-05-08 05:26 25.63243 100.26418 12717 ft 203 kts 351°
2026-05-08 05:27 25.64632 100.26231 12731 ft 200 kts 347°
2026-05-08 05:27 25.65955 100.25886 12705 ft 195 kts 334°
2026-05-08 05:27 25.67240 100.25259 12307 ft 205 kts 330°
2026-05-08 05:27 25.68092 100.24780 12008 ft 210 kts 328°
2026-05-08 05:28 25.69454 100.23950 11556 ft 217 kts 327°
2026-05-08 05:28 25.70841 100.23240 11223 ft 220 kts 343°
2026-05-08 05:28 25.72294 100.23035 11260 ft 204 kts 357°
2026-05-08 05:28 25.73634 100.23407 11156 ft 198 kts 27°
2026-05-08 05:29 25.74522 100.24532 10887 ft 199 kts 68°
2026-05-08 05:29 25.74596 100.25990 10553 ft 189 kts 105°
2026-05-08 05:29 25.73869 100.27199 9929 ft 193 kts 141°
2026-05-08 05:29 25.72965 100.28371 9207 ft 204 kts 131°
2026-05-08 05:30 25.72064 100.29511 8783 ft 187 kts 140°
2026-05-08 05:30 25.71026 100.30302 8307 ft 177 kts 155°
2026-05-08 05:30 25.69938 100.30789 7943 ft 165 kts 167°
2026-05-08 05:30 25.68853 100.31046 7609 ft 158 kts 176°
2026-05-08 05:31 25.67809 100.31245 7399 ft 148 kts 173°
2026-05-08 05:31 25.66839 100.31474 7221 ft 136 kts 173°
2026-05-08 05:31 25.65940 100.31671 7070 ft 125 kts 174°
2026-05-08 05:31 25.65204 100.31829 7073 ft 82 kts 170°
2026-05-08 05:32 25.64826 100.31912 7080 ft 32 kts 168°
2026-05-08 05:32 25.64777 100.32051 7081 ft 22 kts 78°
2026-05-08 05:32 25.64722 100.32117 7081 ft 13 kts 168°
2026-05-08 05:32 25.64624 100.32143 7081 ft 11 kts 145°
2026-05-08 05:33 25.64629 100.32207 7081 ft 2 kts 80°